sat.trackr.live / text

‹ back to catalog

STARLINK-5735

NORAD 55603 · 2023-020AL

PAYLOAD ACTIVE UNKNOWN

§ Identity

Operator
Country
US
Launch date
2023-02-12
Launch site
AFETR
Launch vehicle
Mass (kg)
RCS (m²)

Purposes: comms

External: N2YO · Heavens-Above · Gunter

§ Orbital elements

Epoch: 2026-05-24T19:33:31.127040Z

Period
94.27 min
Inclination
43.0009°
Eccentricity
0.0001195
Mean motion
15.27582295 rev/d
Perigee alt
482.2 km
Apogee alt
483.9 km
Semi-major
6,861.2 km
B*
-3.0729e-5
RAAN
284.1526°
Arg perigee
278.6472°
Mean anomaly
81.4244°
Rev number
18,068

§ Raw data

STARLINK-57351 55603U 23020AL  26144.81494360 -.00001108  00000+0 -30729-4 0  99942 55603  43.0009 284.1526 0001195 278.6472  81.4244 15.27582295180689

JSON: /api/v1/satellites/55603 · /tle

For live sub-satellite position, see the globe view (requires WebGL).

§ Visibility from observer

Set your observer location to see the next 7 days of passes ≥ 10°. The values pass through the URL so the page stays shareable.

No JS? Fill the form by hand. The geolocation button needs JavaScript.